Location: Newark
(48.4472°N, 1.4892°E)
Time: 10:53:18
(UTC+00:00)

Transit 4A - Pass Details

Date: 23 January 2021
Orbit: 866 x 978 km, 66.8° (Epoch: 26 February)

Event Time Altitude Azimuth Distance (km) Brightness Sun altitude
Rises 19:15:23 0° 209° (SSW) 3,662 11.4 -25.7°
Reaches altitude 10° 19:17:56 10° 208° (SSW) 2,721 10.6 -26.1°
Maximum altitude 19:24:19 81° 122° (ESE) 995 7.8 -27.2°
Enters shadow 19:25:09 68° 57° (ENE) 1,048 7.9 -27.3°
